Location: ?
(35.6144°N, 139.6873°E)
Time: 14:16:47
(UTC+00:00)

SPOT 5 - Pass Details

Date: 23 May 2024
Orbit: 620 x 809 km, 98.1° (Epoch: 15 June)

Event Time Altitude Azimuth Distance (km) Brightness Sun altitude
Exits shadow 11:36:59 35° 167° (SSE) 1,086 3.3 -19.2°
Maximum altitude 11:38:55 89° 243° (WSW) 677 2.6 -19.5°
Drops below altitude 10° 11:43:25 10° 348° (NNW) 2,058 6.1 -20.1°
Sets 11:45:35 0° 348° (NNW) 2,952 7.0 -20.4°
